Change the Weather History Date:

Friday, November 30, 2012

  Actual Average Record
Temperature  
Mean Temperature 46 °F 40 °F  
Max Temperature 57 °F 50 °F 72 °F (1941)
Min Temperature 34 °F 31 °F -1 °F (1929)
Degree Days  
Heating Degree Days 19 25  
Month to date heating degree days 686 570  
Since 1 July heating degree days 1087 911  
Cooling Degree Days 0 0  
Month to date cooling degree days 0 1  
Year to date cooling degree days 1310 1155  
Moisture  
Dew Point 34 °F    
Average Humidity 72    
Maximum Humidity 92    
Minimum Humidity 51    
Precipitation  
Precipitation 0.00 in 0.13 in 1.33 in (2010)
Month to date precipitation 1.16 3.73  
Year to date precipitation 34.59 41.61  
Sea Level Pressure  
Sea Level Pressure 30.23 in    
Wind  
Wind Speed 7 mph (SSW)    
Max Wind Speed 21 mph    
Max Gust Speed 25 mph    
Visibility 10 miles    
Events      
T = Trace of Precipitation, MM = Missing Value Source: NWS Daily Summary

Daily Weather History Graph

Daily Weather History Graph

Search for Another Location

Airport or City:

Trip Planner

Search our weather history database for the weather conditions in past years. The results will help you decide how hot, cold, wet, or windy it might be!

Date:

Astronomy

Nov. 30, 2012 Rise Set
Actual Time 7:36 AM EST 5:19 PM EST
Civil Twilight 7:07 AM EST 5:49 PM EST
Nautical Twilight 6:35 AM EST 6:21 PM EST
Astronomical Twilight 6:03 AM EST 6:53 PM EST
Moon 7:13 PM EST (11/30) 9:08 AM EST (11/30)
Length of Visible Light 10h 41m
Length of Day
9h 43m
Waning Gibbous, 96% of the Moon is Illuminated
Nov 30
Waning Gibbous
Dec 6
Last Quarter
Dec 13
New
Dec 20
First Quarter
Dec 28
Full

Hourly Weather History & Observations

Time (EST) Temp. Windchill Dew Point Humidity Pressure Visibility Wind Dir Wind Speed Gust Speed Precip Events Conditions
12:53 AM 36.0 °F 33.3 °F 27.0 °F 70% 30.25 in 10.0 mi South 3.5 mph - N/A   Clear
1:53 AM 34.0 °F 29.8 °F 27.0 °F 75% 30.25 in 10.0 mi South 4.6 mph - N/A   Clear
2:53 AM 37.9 °F 34.4 °F 28.0 °F 68% 30.25 in 10.0 mi South 4.6 mph - N/A   Clear
3:53 AM 36.0 °F 33.3 °F 28.0 °F 73% 30.25 in 10.0 mi SSE 3.5 mph - N/A   Clear
4:53 AM 39.9 °F 33.9 °F 28.0 °F 63% 30.25 in 10.0 mi SSW 9.2 mph - N/A   Clear
5:53 AM 41.0 °F 35.8 °F 28.9 °F 62% 30.26 in 10.0 mi SW 8.1 mph - N/A   Clear
6:53 AM 39.9 °F 34.5 °F 28.9 °F 65% 30.26 in 10.0 mi SSW 8.1 mph - N/A   Clear
7:53 AM 41.0 °F 35.8 °F 28.0 °F 60% 30.27 in 10.0 mi SW 8.1 mph - N/A   Clear
8:53 AM 46.0 °F 41.9 °F 30.9 °F 56% 30.27 in 10.0 mi SW 8.1 mph - N/A   Clear
9:53 AM 50.0 °F - 34.0 °F 54% 30.28 in 10.0 mi SW 15.0 mph 19.6 mph N/A   Clear
10:53 AM 53.1 °F - 39.0 °F 59% 30.28 in 10.0 mi SW 17.3 mph 23.0 mph N/A   Clear
12:53 PM 55.9 °F - 41.0 °F 57% 30.21 in 10.0 mi SW 12.7 mph - N/A   Clear
1:53 PM 55.9 °F - 39.9 °F 55% 30.20 in 10.0 mi SSW 11.5 mph - N/A   Mostly Cloudy
2:53 PM 55.9 °F - 37.9 °F 51% 30.19 in 10.0 mi SSW 13.8 mph - N/A   Partly Cloudy
3:53 PM 55.9 °F - 37.9 °F 51% 30.19 in 10.0 mi SSW 13.8 mph 17.3 mph N/A   Scattered Clouds
4:53 PM 55.0 °F - 37.9 °F 53% 30.19 in 10.0 mi SSW 8.1 mph - N/A   Overcast
5:53 PM 52.0 °F - 37.9 °F 59% 30.18 in 10.0 mi South 5.8 mph - N/A   Scattered Clouds
6:53 PM 44.1 °F - 37.0 °F 76% 30.20 in 10.0 mi Calm Calm - N/A   Clear
7:53 PM 42.1 °F - 36.0 °F 79% 30.22 in 10.0 mi Calm Calm - N/A   Clear
8:53 PM 39.0 °F - 35.1 °F 86% 30.23 in 10.0 mi Calm Calm - N/A   Clear
9:53 PM 41.0 °F - 37.0 °F 86% 30.22 in 10.0 mi Calm Calm - N/A   Mostly Cloudy
10:53 PM 39.9 °F - 37.0 °F 89% 30.22 in 10.0 mi Calm Calm - N/A   Overcast
11:53 PM 46.0 °F - 39.0 °F 76% 30.22 in 10.0 mi Calm Calm - N/A   Overcast